Theta_e
319 316 315 315 314 315 316 316 315 316 316 318 318 317 318 320 322 321 321 324 334 340 342 341 340 338 338 337 336 335 336 337 337 337 339 340 339 336 340 339 339 339 339 338
315 316 317 317 317 316 316 317 316 317 318 320 318 318 317 317 319 322 323 322 323 327 334 341 341 340 338 337 336 335 335 335 335 336 336 338 337 334 338 339 340 340 338 340
316 318 319 319 320 320 318 317 319 319 319 318 318 317 317 318 320 321 323 325 323 323 324 327 338 340 339 337 336 335 335 335 335 336 337 340 338 334 334 337 339 337 339 341
315 316 320 319 319 319 320 319 320 320 318 318 317 318 317 317 318 318 324 332 323 324 324 324 328 339 339 338 336 335 334 334 335 335 336 338 337 336 337 334 335 341 342 342
316 317 318 319 319 320 320 321 320 320 317 318 318 318 318 318 324 323 320 338 338 324 326 328 327 335 339 337 336 336 335 335 335 334 335 336 337 338 341 342 341 343 343 342
316 319 319 318 319 320 320 320 317 314 314 316 318 319 319 321 323 323 325 330 334 339 335 333 333 335 338 337 336 336 336 335 335 335 336 337 340 343 345 344 345 345 342 340
318 320 319 320 320 318 317 315 317 319 319 320 318 320 319 320 323 323 325 329 331 335 339 338 335 337 338 337 337 336 335 335 335 337 339 342 346 349 348 349 349 346 342 340
319 320 322 322 319 319 319 316 318 321 320 317 317 322 324 324 324 326 325 329 330 330 338 342 342 340 338 338 339 337 337 339 342 345 348 349 348 347 348 351 349 345 340 340
319 321 322 323 321 318 319 318 317 316 316 316 316 321 322 323 324 327 327 328 329 329 340 345 345 343 342 341 340 339 341 346 350 351 350 350 348 348 346 345 343 342 340 337
320 322 322 323 321 321 322 317 316 313 319 321 318 321 322 324 323 325 325 326 328 329 330 339 345 346 346 345 345 346 349 349 350 351 349 345 344 344 343 342 342 339 339 338
322 319 321 321 320 324 320 319 316 314 316 318 318 318 318 324 321 324 325 326 329 333 331 332 338 342 347 348 348 348 349 350 351 350 346 344 344 342 343 342 339 339 335 330
319 319 324 325 321 320 319 321 317 319 322 319 317 318 318 321 322 324 326 337 339 339 336 333 333 341 345 348 348 348 350 349 348 348 344 343 342 342 341 339 337 333 330 325
318 317 316 316 317 320 321 321 320 317 316 321 321 322 320 320 327 328 330 337 337 338 339 339 341 344 348 349 348 348 346 347 346 344 342 340 337 338 337 335 330 329 324 323
319 319 316 317 318 322 322 322 320 317 316 318 319 319 319 318 331 333 332 330 332 334 336 336 337 340 344 346 345 346 345 342 342 340 339 337 336 335 335 331 327 324 323 322
314 316 321 320 320 322 322 322 321 320 318 318 319 318 316 321 327 323 322 322 325 332 336 335 339 341 339 344 344 345 344 341 338 330 328 335 335 334 329 326 325 324 322 320
316 320 321 322 321 319 321 320 320 318 319 321 319 319 322 322 320 319 319 319 320 322 331 335 334 339 344 344 344 345 343 338 334 328 329 332 333 330 327 325 325 322 320 319
317 319 320 321 321 320 321 320 319 318 323 324 329 325 320 319 319 318 318 319 319 327 328 333 334 335 341 343 343 343 341 335 331 328 334 333 330 329 326 325 323 321 320 318
315 316 317 320 317 320 317 316 317 322 323 320 325 325 322 320 320 319 318 319 319 326 330 334 334 335 337 338 341 342 339 334 329 330 335 330 329 327 325 323 322 321 320 318
313 313 315 316 316 316 318 318 319 320 324 316 317 323 322 321 320 318 317 317 318 318 318 320 329 331 333 336 336 339 338 335 332 334 331 329 327 326 324 323 322 320 318 312
312 312 314 315 318 318 317 318 320 319 325 315 314 316 317 317 317 315 316 314 317 317 314 315 315 321 330 334 334 336 336 335 333 331 329 328 327 326 325 323 320 316 311 311
314 315 315 313 315 315 315 318 319 320 318 315 314 313 313 313 315 314 313 315 316 319 316 316 313 316 330 334 334 332 331 332 331 330 328 327 327 326 321 319 315 310 311 311
314 314 316 314 316 317 315 318 320 318 318 317 314 314 315 316 316 316 315 313 313 315 317 319 314 313 319 331 333 333 332 330 330 328 328 327 324 321 316 310 310 311 311 312
313 313 313 315 315 313 314 313 313 313 313 314 314 314 314 314 315 318 318 317 313 314 314 314 313 312 315 323 332 332 332 330 328 328 327 323 320 312 310 311 311 312 312 311
311 310 309 310 310 312 310 312 311 310 310 311 313 313 313 312 312 312 314 313 313 314 315 315 313 314 316 324 329 332 331 329 328 327 324 320 312 311 311 312 310 309 308 307
310 309 307 307 309 309 310 311 310 310 308 308 309 309 311 312 312 311 312 311 311 313 312 313 315 315 317 326 329 327 329 329 328 324 319 315 312 311 311 309 308 307 306 306
309 306 307 308 308 306 308 309 308 308 308 308 308 309 309 310 310 310 312 312 313 313 314 314 315 316 317 321 327 327 328 326 324 321 314 310 310 310 310 308 308 306 306 307
Wind_Speed
4 4 4 8 6 5 3 3 6 12 8 4 5 6 11 17 12 14 11 15 34 39 45 47 43 44 44 44 43 42 42 41 38 35 33 32 32 30 32 31 27 27 26 24
6 5 7 5 5 6 6 5 7 7 5 2 7 10 8 8 10 14 24 16 18 22 33 46 47 45 46 46 49 47 45 43 38 37 34 34 32 33 35 34 34 30 28 26
3 7 12 5 6 4 5 5 5 5 4 4 7 8 7 7 8 18 24 24 23 20 28 32 44 49 48 47 50 48 47 44 40 37 37 37 37 37 38 39 36 32 27 33
5 4 2 4 5 3 2 4 2 5 5 2 3 4 6 10 13 10 18 33 16 4 8 20 33 46 52 48 48 47 45 45 40 38 38 42 42 38 38 35 33 31 33 32
7 5 4 7 5 0 7 2 3 3 3 2 8 5 8 8 15 20 14 26 22 16 3 10 22 35 47 47 46 43 42 43 40 38 39 41 40 39 35 37 32 30 33 31
7 6 5 7 5 2 3 3 6 5 3 4 5 4 6 5 6 12 11 31 27 19 6 4 10 16 32 43 43 39 38 41 42 40 38 37 36 35 36 31 30 29 31 27
7 4 6 3 1 3 6 7 4 5 5 4 2 2 7 10 9 5 9 27 29 14 9 7 7 8 14 30 38 37 37 39 38 35 32 31 33 31 30 30 29 29 29 25
1 7 3 6 2 5 2 6 5 2 2 5 4 2 4 5 12 5 4 19 22 28 11 9 11 10 11 15 24 32 33 33 31 28 27 26 28 28 27 24 23 20 21 12
2 5 5 3 3 4 2 3 2 6 2 2 3 6 8 6 9 14 20 14 14 20 15 10 10 10 13 19 22 25 28 27 24 23 24 22 26 26 26 23 18 18 14 9
2 4 3 6 2 6 6 3 4 4 1 4 5 4 5 7 9 8 8 14 18 13 12 8 10 14 18 20 22 24 23 21 18 19 20 18 17 20 19 17 13 12 11 9
1 3 7 4 6 3 6 5 4 4 3 4 3 6 4 4 9 8 11 15 17 12 7 8 15 18 23 22 25 24 19 16 16 20 16 14 15 16 12 9 8 7 5 5
3 4 2 3 8 3 6 3 5 4 5 1 2 6 2 6 9 14 12 15 15 18 14 12 9 13 20 24 27 24 19 20 17 20 12 9 13 11 10 6 7 5 4 5
4 2 4 9 6 6 6 3 1 3 3 3 1 6 2 13 13 15 5 12 17 18 16 13 14 14 19 25 25 24 24 20 21 15 5 8 10 8 8 6 6 5 5 5
4 2 5 5 5 2 4 5 3 3 3 3 5 8 15 9 8 16 23 22 21 24 26 25 24 19 19 26 22 18 19 18 10 5 4 3 7 9 10 8 6 5 5 6
4 1 1 4 5 2 3 6 3 5 7 5 6 6 11 7 8 16 22 27 31 33 32 32 32 28 23 17 18 19 18 14 16 34 23 10 8 10 9 7 5 3 3 5
4 1 1 3 3 5 3 9 7 3 1 3 5 3 8 15 19 27 28 29 31 35 34 35 38 35 25 11 15 18 15 11 13 23 9 11 11 7 5 5 2 2 5 6
1 3 2 4 3 5 5 5 2 2 6 2 5 2 4 8 17 22 27 31 32 35 32 31 35 35 33 17 12 13 9 9 16 4 10 12 7 5 2 3 1 2 5 8
5 5 3 3 3 3 5 6 2 8 5 8 3 2 2 4 4 20 26 27 30 33 35 31 33 31 28 26 17 13 11 10 11 11 10 9 6 4 2 2 4 5 8 11
9 5 1 2 2 5 9 2 2 2 3 7 3 6 11 8 2 16 21 23 26 29 31 31 29 29 27 21 19 15 13 16 10 6 9 6 3 3 2 4 5 6 8 11
6 4 4 2 3 4 6 2 7 2 1 4 14 12 11 15 4 4 16 19 23 28 32 36 33 27 23 19 16 12 11 7 2 4 8 6 5 5 6 5 5 8 9 4
3 2 5 3 4 6 7 17 16 3 5 3 8 10 12 4 3 10 13 18 20 20 26 34 38 31 21 19 12 9 11 8 6 7 6 4 5 5 5 5 7 8 4 8
3 3 4 2 2 5 15 5 2 5 7 8 6 6 6 6 10 14 17 21 22 30 25 26 31 33 23 18 12 10 11 8 8 5 6 5 3 3 4 3 3 4 7 12
3 4 2 5 4 2 9 9 6 10 13 14 13 15 16 18 22 24 23 26 23 28 23 20 24 34 27 20 14 12 11 10 5 6 7 7 2 2 2 2 5 9 12 14
2 3 2 2 3 6 11 3 3 12 15 15 17 22 19 19 18 20 21 22 19 20 19 19 24 31 28 19 12 13 10 9 9 9 8 5 4 4 4 6 9 9 9 8
2 3 3 5 14 20 16 13 25 26 29 27 27 24 22 22 23 25 26 28 28 22 23 21 21 25 24 18 10 12 10 11 12 11 6 4 4 4 5 7 7 7 6 8
7 5 2 8 23 13 22 27 31 40 37 33 33 31 27 29 31 25 26 25 26 24 22 21 19 21 25 19 11 12 7 13 14 10 5 4 5 3 5 7 5 6 8 11
Wind_Direction
21 60 244 240 208 220 269 268 269 282 270 292 339 304 303 311 326 303 286 231 230 229 237 231 228 228 227 232 233 232 229 229 227 229 229 232 239 241 239 247 254 255 255 252
8 264 251 243 220 219 232 268 270 278 267 274 348 294 274 288 267 269 298 283 242 239 245 237 231 230 230 230 234 232 231 231 233 232 235 236 244 245 247 250 251 252 256 252
176 253 328 302 295 222 233 206 257 233 311 30 341 321 319 293 267 305 304 312 300 260 233 237 236 232 230 230 233 233 231 231 233 234 235 233 237 238 241 242 245 248 252 258
235 295 312 309 273 214 288 240 265 315 40 318 39 284 329 324 314 295 344 346 319 242 206 222 236 229 227 229 231 234 231 233 233 236 234 234 237 238 243 244 244 250 252 231
264 298 333 326 253 334 232 50 28 357 81 42 347 57 276 324 351 342 332 14 9 296 199 236 229 233 230 229 232 236 233 232 235 237 240 241 244 247 252 253 248 250 244 237
242 266 237 219 228 215 309 26 42 54 51 38 290 103 299 322 306 332 360 29 8 359 321 161 227 227 238 229 234 236 236 235 233 235 240 245 249 254 257 255 264 260 241 237
324 306 288 279 282 23 74 49 357 1 12 218 324 45 242 292 291 276 353 36 28 344 309 252 222 221 229 233 237 238 237 238 241 243 248 256 260 259 262 265 265 270 235 237
72 339 334 323 248 188 75 136 146 223 263 270 300 227 254 267 294 285 11 24 23 13 316 257 228 218 230 240 241 237 239 244 246 246 250 261 265 268 270 261 264 266 242 246
144 279 309 349 352 100 17 2 188 103 347 30 281 294 325 321 350 356 11 9 349 13 3 279 254 247 242 241 238 243 248 242 243 249 259 265 277 273 272 267 256 242 236 240
0 323 348 308 45 18 88 168 21 10 360 295 289 286 235 313 321 324 356 6 11 12 359 332 274 255 242 236 241 243 244 250 251 255 265 277 271 266 257 248 235 216 227 252
59 99 299 1 32 325 6 14 36 115 118 187 293 274 267 307 299 306 341 357 356 350 330 283 264 257 250 242 246 249 249 251 252 256 257 268 269 273 253 239 220 245 251 226
353 126 354 286 303 320 67 80 103 102 300 325 175 276 258 358 331 333 343 36 14 14 345 322 287 276 262 249 250 249 243 247 247 252 244 275 271 252 252 243 254 242 248 262
350 13 17 348 351 14 50 37 69 128 76 227 119 274 305 24 358 350 351 47 35 23 14 349 314 288 248 248 252 254 247 238 241 241 255 277 286 258 254 248 259 277 284 291
52 100 151 199 222 204 312 325 281 151 149 224 224 274 309 2 13 17 19 18 23 22 18 8 4 353 297 266 270 267 270 281 250 278 242 282 303 275 278 268 253 261 280 301
74 112 259 250 257 277 253 281 242 213 239 189 266 264 287 11 18 29 27 20 20 22 21 15 7 356 339 301 266 255 247 251 256 314 298 297 299 297 276 262 253 262 306 332
3 271 350 269 1 340 281 274 287 304 2 281 292 288 356 48 39 30 22 17 14 12 16 13 9 5 359 325 262 255 253 287 291 319 187 235 266 288 285 265 262 345 342 332
134 129 69 253 325 329 318 273 283 307 30 302 57 283 337 35 43 30 20 21 14 14 10 13 10 6 6 353 320 273 283 300 294 225 210 228 251 292 288 247 280 326 335 339
166 133 144 245 356 248 246 288 207 98 53 25 4 337 195 170 67 36 31 21 14 13 13 15 11 11 12 5 341 290 265 267 281 245 225 214 252 264 224 228 268 311 338 333
197 126 132 171 213 299 312 129 8 261 70 354 307 340 359 352 52 22 21 18 13 6 2 5 7 7 2 353 344 315 256 299 287 229 217 238 249 231 266 298 297 316 324 324
76 88 122 142 182 227 245 268 320 210 199 29 64 42 29 45 58 289 6 10 4 356 352 351 352 352 351 350 357 341 318 328 357 218 240 260 228 256 283 304 319 322 330 296
6 39 189 187 223 281 324 324 343 17 251 159 85 68 47 56 8 348 356 356 351 339 342 338 339 342 340 342 350 337 353 326 289 265 246 234 242 259 282 314 330 326 313 308
213 189 225 114 202 283 352 44 50 315 347 328 323 357 338 308 310 326 333 332 336 329 321 315 322 322 330 325 308 304 308 306 283 234 222 223 233 269 329 354 341 325 301 308
264 188 211 169 225 172 62 84 51 5 340 313 292 302 305 310 301 292 296 313 310 309 301 308 309 313 316 314 296 284 289 282 230 218 220 204 200 201 246 279 314 317 317 320
261 80 162 26 282 230 322 169 329 339 326 318 303 300 302 304 318 320 302 296 290 286 287 298 305 311 317 307 291 289 282 280 233 226 211 207 193 219 264 319 333 336 328 339
224 339 197 253 281 294 301 250 307 308 317 304 298 301 290 290 291 292 288 289 291 277 290 297 294 312 320 315 294 297 283 253 231 222 209 197 216 258 308 335 334 340 345 346
224 223 241 273 286 280 288 300 302 306 303 298 293 292 288 284 288 292 296 300 303 299 295 301 289 311 330 325 298 287 265 237 232 208 168 187 228 275 318 333 337 345 349 345